Hourly Data Report for October 18, 2014

All times are specified in Local Standard Time (LST). Add 1 hour to adjust for Daylight Saving Time where and when it is observed.

QIKIQTARJUAQ A
NUNAVUT

67°32'48.000" N
64°01'54.000" W
5.50 m
2400577
YVM

Download Data

Hourly Data (October 2014)
Hourly Data Report for October 18, 2014
Temp Definition
°C
Dew Point Temp Definition
°C
Rel Hum Definition
%
Wind Dir Definition
10's deg

Wind Spd Definition
km/h
Visibility Definition
km
Stn Press Definition
kPa
Hmdx Definition


Wind Chill Definition


Weather Definition


TIME
00:00 Legend Double Dagger -0.7 -2.3 89 35 32 16.1 101.47   -8 Snow
01:00 Legend Double Dagger -0.5 -2.6 86 35 34 16.1 101.46   -8 Snow
02:00 Legend Double Dagger -0.6 -3.0 84 36 37 16.1 101.45   -8 Snow
03:00 Legend Double Dagger -1.0 -3.7 82 35 32 16.1 101.45   -8 Snow
04:00 Legend Double Dagger -1.1 -4.1 80 34 26 16.1 101.45   -7 Snow
05:00 Legend Double Dagger -1.6 -4.4 81 34 28 8.1 101.45   -8 Snow
06:00 Legend Double Dagger -2.1 -5.0 81 33 21 16.1 101.44   -8 LegendNANA
07:00 Legend Double Dagger -2.3 -4.9 82 32 17 16.1 101.44   -8 LegendNANA
08:00 Legend Double Dagger -1.8 -6.2 72 33 11 16.1 101.44   -6 LegendNANA
09:00 Legend Double Dagger -1.7 -5.6 75 31 18 16.1 101.42   -7 Snow
10:00 Legend Double Dagger -1.8 -6.0 73 29 17 16.1 101.39   -7 LegendNANA
11:00 Legend Double Dagger -2.0 -6.7 70 31 21 16.1 101.37   -8 LegendNANA
12:00 Legend Double Dagger -1.9 -5.9 74 32 13 16.1 101.37   -6 LegendNANA
13:00 Legend Double Dagger -2.3 -6.5 73 31 13 16.1 101.38   -7 Snow
14:00 Legend Double Dagger -2.0 -6.2 73 29 13 16.1 101.40   -6 LegendNANA
15:00 Legend Double Dagger -2.1 -6.4 72 30 15 16.1 101.43   -7 LegendNANA
16:00 Legend Double Dagger -2.6 -7.4 70 31 17 16.1 101.44   -8 LegendNANA
17:00 Legend Double Dagger -2.3 -7.2 69 29 18 16.1 101.45   -8 LegendNANA
18:00 Legend Double Dagger -2.6 -7.4 70 29 17 16.1 101.45   -8 LegendNANA
19:00 Legend Double Dagger -2.3 -7.5 68 31 17 16.1 101.47   -8 LegendNANA
20:00 Legend Double Dagger -3.6 -8.0 72 21 11 16.1 101.49   -8 LegendNANA
21:00 Legend Double Dagger -4.3 -8.8 71 18 17 16.1 101.49   -10 LegendNANA
22:00 Legend Double Dagger -4.8 -9.3 71 19 22 16.1 101.46   -12 LegendNANA
23:00 Legend Double Dagger -5.2 -9.5 72 18 24 16.1 101.44   -12 LegendNANA

Notes on Data Quality.

Legend

  • E = Estimated
  • M = Missing
  • NA = Not Available
  • ‡ = Partner data that is not subject to review by the National Climate Archives
Date modified: